CAPE
1922 1981 2023 2247 2270 2140 2286 2320 2366 2470 2334 2266 2220 2155 1926 1872 2069 2115 2053 2022 1992 1928 2270 2088 2404 2392 2272 2503 2654 2464 2272 2242 2385 2333 2269 2210 2217 2050 1970 2179 2349 2369 2612 2614 2699 2567 2342 2496 2535 2587 2420 2141 2214 2582 2949 2607 2453 2988 2996 2522 2891 2709 2846 3303 3333 3290 3202 3070 3029 2601 2715 2909 2737 2600 2580 2777 2666 2707 2654 2801 2733 2924 2514 2557 2699
1938 1960 1952 2164 2271 2232 2132 2075 2360 2343 2312 2342 2338 2206 2177 2086 2116 2020 2027 1938 1831 2032 2240 2314 2365 2354 2408 2515 2543 2462 2439 2427 2569 2437 2176 2120 2122 2071 2196 2296 2343 2348 2455 2561 2631 2566 2541 2487 2517 2612 2322 2163 2074 2164 2549 3054 3076 3119 3091 3049 3041 2977 3041 3078 2949 2716 2746 2806 2504 2743 2581 2434 2514 2810 2694 2812 2856 2710 2413 2739 2981 2847 2839 2688 3065
1930 1849 1816 2257 2240 2154 1924 2114 2284 2284 2300 2309 2233 2326 2243 2107 2083 2059 2053 1890 1646 2069 2204 2386 2298 2486 2588 2578 2455 2392 2418 2509 2437 2276 2002 1912 2213 2233 2008 1943 2231 2156 2369 2489 2367 2554 2707 2562 2303 2250 2356 2260 2273 2194 2328 2949 2969 3122 3187 3170 3121 3040 2900 2801 2464 2695 2542 2888 3040 3058 3017 2881 2811 2818 2657 2310 2281 2738 2491 2710 3036 2750 2595 2847 2737
1885 1734 1719 2203 2078 2168 2043 2080 2164 2175 2185 2172 2274 2235 2032 2074 1960 1900 1919 1843 1872 2092 2400 2418 2295 2366 2380 2390 2334 2143 2670 2532 2483 2258 2174 2198 2194 2164 2131 1993 2155 2178 2225 2213 2372 2552 2730 2630 2475 2448 2607 2638 2448 2244 2603 3124 3179 3061 2919 3104 3134 3171 2886 2697 2582 2531 2995 2965 3189 3027 3128 2679 2820 2880 2754 2713 2575 2818 2942 2775 2515 2552 2545 2679 2728
1602 1572 1712 1758 1942 2132 2152 2022 2167 2229 2165 2215 2250 2098 2149 2095 1996 1895 1885 1945 1983 2112 2181 2498 2502 2548 2466 2137 2274 2218 2624 2626 2640 2493 2275 2223 2015 2083 2079 2270 2108 2159 2208 2443 2635 2343 2578 2439 2417 2613 2727 2698 2699 2631 2648 3021 3198 3185 3244 3123 3039 3041 2595 2505 2664 2913 2732 2874 3143 3047 2549 2574 2649 2910 2919 2925 2814 2936 2883 2862 2775 2845 2819 2764 2732
1484 1526 1685 1789 1962 2105 2050 2017 2176 2062 2120 2188 2102 2062 2092 2155 2076 1914 2116 2316 2273 2206 2078 2423 2518 2451 2379 2268 2252 2303 2480 2505 2524 2384 2255 2267 2248 2068 2024 2028 2083 2007 2065 2145 2263 2546 2409 2562 2612 2550 2850 2847 2892 2823 2942 3076 3171 3273 3125 3064 3154 3229 3341 3300 3218 3441 3280 2638 2865 2418 2469 2528 2547 2696 2784 2806 2764 2715 2669 2661 2726 2582 2758 2772 2834
1478 1578 1747 1760 1812 1958 1962 1871 2003 2072 2090 2010 2044 2000 1926 1951 1969 1983 2127 2383 2332 2260 2238 2222 2372 2304 2245 2156 2279 2529 2367 2311 2370 2366 2481 2304 2126 2085 2070 1986 2062 2163 2198 2146 2222 2726 2423 2572 2743 2769 2976 3012 3018 3045 3174 3250 3132 3182 3319 3421 3186 3390 3458 3515 3404 3067 2903 3268 2050 2020 2315 2398 2485 2515 2828 2852 2870 2844 2783 2776 2696 2512 2448 2589 2728
1501 1514 1640 1641 1677 1847 1902 1848 1844 1988 2045 2013 2176 2107 2012 1939 1991 2089 2256 2473 2298 2102 2164 2067 2211 2248 2247 2028 2204 2265 2340 2393 2307 2409 2370 2374 2323 2176 2080 2018 2162 2196 1955 2125 2139 2501 2477 2421 2832 2829 2877 3058 3068 3040 3143 3141 3203 3305 3400 3383 3465 3536 3442 3317 3199 3238 3309 2342 1834 1922 1919 2178 2272 2318 2653 2630 2528 2402 2198 2101 2194 2594 2539 2557 2735
1485 1508 1603 1510 1581 1795 1935 1940 1976 2022 2080 2416 2262 2066 2006 2027 2073 2263 2352 2523 2388 2266 2098 2018 2067 2120 2071 2101 2066 2235 2454 2452 2253 2279 2345 2328 2308 2180 2026 1991 2190 2293 2275 2274 2367 2342 2499 2469 2719 3027 3005 3150 3076 3031 3232 3263 3307 3299 3308 3275 3268 3421 3476 3389 3560 3510 3323 3134 1950 1798 1989 2135 2196 2265 2494 2411 2413 2608 2612 2472 2531 2588 2549 2240 2375
1598 1502 1441 1444 1453 1825 1887 2082 2131 2102 2302 2227 2094 1981 2186 2099 2097 2114 2292 2397 2341 2128 2140 2172 2068 2021 2062 2136 2172 2233 2315 2364 2321 2187 2403 2342 2338 2296 2158 2017 2198 2240 2245 2147 2118 2244 2723 2724 2742 2738 2656 2776 2964 3073 3072 3080 3075 2984 2845 2879 2934 2875 3365 2969 3401 3172 2594 1647 1206 1654 2016 2138 2046 2266 2568 2606 2562 2718 2664 2629 2890 2661 2728 2750 2650
1498 1478 1474 1508 1594 1944 2065 2239 2271 2259 2245 2303 2275 2210 2166 2156 2012 1863 2277 2192 2178 2146 2060 2258 2180 2209 1987 2159 2326 2241 2288 2307 2266 2290 2418 2446 2387 2257 2227 2252 2186 2290 2265 2320 2475 2426 2470 2584 2644 2721 2647 2750 2848 2932 2814 2827 2759 2563 2560 2711 2456 2839 3014 3028 3542 3280 2536 1735 1823 2068 2370 2388 2018 2159 2557 2641 2630 2724 2769 2820 2800 2756 2658 2645 2612
1438 1556 1641 1826 2298 2099 2098 2175 2300 2356 2327 2294 2341 2317 2233 2218 1932 1944 2083 2128 2163 1969 2020 2177 2243 2231 2130 2276 2315 2318 2457 2411 2239 2260 2366 2416 2348 2290 2406 2303 2144 2249 2511 2524 2309 2492 2797 2971 2808 2647 2668 2554 2435 2327 2391 2253 2064 2017 2004 1954 2533 2621 3228 3639 4043 1583 1341 1774 1871 1861 1917 2064 2024 2072 2437 2485 2665 2697 2660 2635 2518 2384 2323 2356 2546
1820 1833 2027 2335 2296 2222 2230 2334 2383 2424 2430 2212 2183 2227 2255 2150 1885 1937 2193 2164 2003 1900 2029 2170 2160 2212 2325 2302 2226 2450 2455 2361 2527 2441 2332 2334 2327 2282 2206 2086 2299 2370 2592 2654 2652 2613 2721 3090 3017 2705 2719 2798 2693 2766 2661 2702 2682 2458 2591 2756 2831 3036 3166 3888 3822 1119 1553 1854 1943 1843 1883 2023 2257 2660 2388 2309 2169 2197 2232 2230 2209 2174 2185 2255 2259
1805 1789 1913 1917 2080 2335 2331 2246 2201 2320 2357 2337 2143 2167 2114 1927 1889 1875 1999 2102 1976 1938 1828 1955 2290 2216 2216 2365 2251 2469 2460 2416 2630 2454 2417 2298 2414 2426 2317 2383 2445 2541 2530 2491 2704 2969 3102 3292 3334 3193 3144 3007 2874 2898 2878 2740 2836 2940 2811 3200 3158 3296 3644 3809 3207 1367 1656 1657 1871 1907 2046 2232 2197 2566 2195 1991 1936 2008 2026 2122 2106 2100 2120 2072 2028
1618 1732 1905 1930 2090 2124 2190 2186 2237 2202 2222 2273 2179 2102 2015 1900 1783 1806 2116 2144 2059 2058 1918 1768 1645 2366 2277 2254 2097 2090 2355 2468 2594 2424 2269 2259 2198 2364 2453 2457 2604 2694 2559 2713 3124 3252 3358 3380 3334 3308 3205 3182 3040 3018 2994 2918 2820 3000 3274 3072 3550 3624 3709 3462 3358 1526 1656 1931 2070 1922 1912 1901 2156 2192 2171 2151 2036 1978 1867 1794 1778 1959 1750 1816 1581
1765 1866 1963 1856 1902 2043 2149 2149 2292 2048 2087 2155 2071 1984 1901 1820 1688 1970 2129 2069 2106 2066 2060 1880 1918 2112 2160 2205 1977 2220 2318 2529 2476 2460 2374 2368 2101 2450 2548 2553 2781 2752 2784 3011 3140 3272 3495 3533 3530 3488 3434 3211 3119 3067 3024 3147 3063 3116 2966 3486 3342 3737 3967 4002 3647 1069 1630 1343 1545 1907 1901 2232 2404 2254 2103 1979 1892 1770 1793 1685 1496 1296 1105 1357 1615
2061 1919 1868 1952 1888 1737 1768 1954 2045 2038 1940 1968 1951 1985 1940 1764 1681 2055 2006 2073 2232 2073 1965 2256 2372 2317 2147 2208 1867 2044 2327 2317 2509 2497 2289 2216 2206 2491 2355 2626 2832 2840 2985 3256 3219 3350 3453 3498 3481 3547 3461 3265 3080 3162 3132 3151 3362 3173 3198 3106 3487 3772 3793 3900 3761 1257 1365 1725 1772 1845 2097 2180 2263 2108 2056 1682 1490 1363 1140 1274 1799 1843 1556 1394 1497
2103 1899 1891 1812 1786 1934 1831 1763 1659 1692 1851 1826 1734 1928 1837 1853 1695 1990 2086 2194 2106 2101 2074 2271 2248 2191 2218 2217 2140 2155 2237 2340 2402 2445 2341 2318 2426 2358 2454 2655 2790 3160 3160 3198 3240 3280 3216 3225 3356 3378 3231 3216 3318 3178 3292 3456 3364 3331 3370 3591 3598 3832 3747 4070 3977 1496 1943 2035 1496 1950 1978 2423 2257 2138 1970 1568 1530 1635 1629 1851 1757 1537 1438 1492 1667
2064 2004 1820 1729 1673 1622 1523 1369 1280 1562 1361 1385 1620 1728 1563 1666 1741 1785 2042 2214 2119 2156 2250 2159 2080 2176 2274 2342 2345 2491 2424 2481 2363 2374 2484 2492 2607 2576 2748 2892 3092 3249 3374 3370 3213 3268 3253 3224 3253 3445 3303 3350 3527 3389 3386 3374 3431 3836 3617 3702 3879 4105 4247 4528 3855 1340 1783 1500 1486 1706 2028 2502 2324 2046 1650 1579 1722 1799 1684 1498 1291 1477 1741 1674 1675
1836 1743 1731 1657 1388 1356 1157 952 1128 1093 1034 1031 1157 1576 1690 1724 1805 2040 1960 2064 2162 2375 2370 2141 2078 2265 2434 2364 2334 2464 2575 2567 2490 2381 2433 2577 2602 2705 2934 3185 3152 3152 3310 3202 3314 3282 3417 3416 3466 3485 3595 3495 3462 3332 3469 3506 3778 3627 4014 3846 4066 4047 4106 3611 2641 1164 1230 1379 1629 1871 2408 2269 1988 1865 1868 1758 1736 1818 1978 1890 2014 1947 1864 2078 2381
1705 1473 1616 1583 1662 1290 1214 1090 1093 1020 960 913 1011 1373 1928 1848 1924 1890 2003 2012 2242 2358 2198 2174 2401 2333 2392 2337 2461 2575 2574 2481 2662 2629 2708 2994 2748 2901 3116 3208 3153 3120 3310 3129 3187 3247 3220 3422 3443 3567 3479 3604 3376 3578 3694 3717 3916 4014 3996 4448 4512 4421 3979 3009 2294 1527 1588 2096 2159 1924 2319 2112 2121 2071 2063 2018 1969 2102 2136 2277 2158 2371 2242 2199 2201
1434 1348 1422 1567 1444 1473 1299 1202 1388 992 938 982 1072 1439 1711 1703 1634 1888 2146 1835 2059 2129 2360 2446 2512 2330 2367 2653 2704 2985 2542 2536 2625 2950 3148 3026 3006 3156 3292 3351 3296 3418 3319 2830 2919 3138 3130 3460 3423 3646 3712 3778 3762 3835 3655 3816 3805 4024 4174 4276 4760 4339 4091 3239 2138 1050 1505 1642 2501 2676 2578 2489 2240 2111 2116 2125 2051 2041 2227 2280 2223 2150 2306 2428 2432
1366 1297 1112 1132 1472 1474 1316 1164 1294 987 965 1033 1083 1204 1116 1153 1361 1539 1929 2130 2263 2575 2239 2554 2288 2419 2520 2555 2962 2602 2495 2566 2862 3149 3211 3100 3049 3238 3431 3302 3283 3466 3065 2704 2926 2865 3040 3241 3454 3426 3749 3548 3956 3401 3287 3096 2453 3352 4058 3946 4230 4206 3443 2939 1288 1538 1278 1880 2276 2802 2660 2469 2390 2286 2233 2220 2296 2382 2312 2493 2230 2363 2659 2637 2885
1373 1377 1297 1116 1019 1343 1209 1069 1114 1027 938 989 1018 1037 1032 1096 1161 1337 1518 1620 1936 2159 2159 2210 2195 2432 2537 2309 2390 2411 2561 2470 2971 3042 3066 3206 2874 3248 3384 3400 3364 2934 2775 3072 3228 3305 3433 3534 3515 3803 4050 3934 3212 3258 3033 2838 2600 2320 2477 3259 3626 3782 1929 1392 1299 1399 1341 2322 2463 2827 2680 2664 2538 2586 2554 2588 2575 2690 2702 2562 2640 2742 2853 3064 3225
1191 1395 1598 1403 1427 1487 1428 1474 1170 1003 1030 1030 978 978 945 1048 1205 1276 1526 1721 1835 1936 1995 2305 2307 2507 2488 2834 2477 2401 2522 2193 2463 2394 2439 2559 2660 2872 2852 2853 2880 2751 3472 3000 2886 2855 3593 3185 3136 3694 3512 3222 3204 2829 2718 2591 2477 2472 2579 2793 3236 3178 1341 1552 1501 1034 1063 1800 2755 3029 2935 2943 2815 2899 2993 2686 2729 2680 2721 2569 2628 2767 2957 3227 3135
1549 1418 1434 1561 1626 1578 1583 1477 1514 1144 1138 1044 936 1077 915 898 1095 1422 1866 1720 1757 1775 1916 2193 2319 2376 2368 2470 2488 2412 2154 2096 1854 1828 1728 1775 2242 2391 2312 2449 2628 2583 3064 2964 2841 2677 2247 2530 2772 2723 2677 2956 2679 2542 2164 2548 2331 2506 2235 1937 1046 1290 1491 1678 1530 880 1079 1764 3055 3224 3283 3251 3267 3247 3160 2917 2914 2828 2831 2893 2878 3076 3233 3336 3398
1588 1466 1473 1626 1639 1504 1262 1321 1496 1614 1442 1342 1384 1467 1272 1330 1522 1711 1908 1879 1658 1948 2215 2522 2279 2186 2116 1978 2258 2319 1825 1590 1547 1623 1253 1402 1715 1809 1695 2009 2351 2263 2502 2431 2728 2962 2557 2234 2184 2337 2514 2604 2489 2263 2251 2181 2094 1881 1072 1048 1127 1223 1529 1605 1662 1067 1089 1781 2908 3330 3281 3302 3449 3468 3564 3451 3273 3208 3219 3354 3487 3542 3594 3729 3971
1590 1684 1558 1548 1672 1557 1570 1572 1780 1772 1750 1597 1644 1686 1526 1473 1663 2373 2262 2200 1758 2047 2045 1974 2276 1952 1851 1752 2199 2086 1336 1522 1511 1865 1932 2265 2747 3071 3002 3044 2812 2793 2824 2458 2507 2930 2972 2519 1963 2231 2311 2469 2612 2374 1698 1396 776 1104 1047 1027 1020 978 1428 1638 1738 1170 1041 1485 2582 3150 3220 3264 3451 3514 3646 3800 3797 3751 3675 3680 3696 3785 3867 3958 3925
1602 1739 1578 1503 1538 1706 1632 1735 1922 1906 1871 1730 1872 1944 1884 1926 2052 2283 2126 2642 1752 1754 1775 1654 2069 2142 2141 2142 1960 1350 1296 1437 1729 2093 2206 2284 2458 2214 2250 2531 2853 2450 2239 2403 2425 2385 2570 2392 2608 2911 2123 2223 1711 957 826 792 723 906 952 847 1152 1297 1550 1670 1643 1429 1171 1356 2081 2997 3305 3240 3046 3554 3460 3635 3764 3966 3968 3902 3950 4046 4164 4252 4370
1490 1668 1526 1634 1793 1616 1418 1479 1826 1915 1914 1821 1807 1743 1782 1965 2457 2468 2320 2729 1799 1748 1632 1657 1848 2298 2404 2213 1589 1044 1008 1128 1657 1880 2308 2378 2267 2023 2641 2694 2115 1806 2353 2464 2125 1888 1793 1656 1856 1969 1676 1831 1608 1804 1290 782 815 879 870 772 1140 1278 1339 1484 1587 1605 1511 1492 1718 2449 3453 3607 3188 3408 3432 3517 3658 3785 3874 4019 4164 4402 4498 4656 4789
1390 1699 1709 1674 1955 1664 1398 1474 1498 2108 1772 1416 1308 1410 1657 1884 2163 2127 2197 2318 1979 1777 1814 1882 1988 1900 2519 2592 2047 1238 936 1284 1408 2583 2674 2793 2506 2372 2262 2525 2128 1714 2541 2456 1806 2181 2899 1869 2175 1885 1581 1470 1969 1351 1234 723 688 513 860 814 1131 1253 920 875 1526 1652 1691 1674 1890 2162 3726 3739 3895 3814 3776 3716 3856 3919 3900 4085 4355 4657 4781 4854 5032
1373 1568 1795 1693 1694 1693 1600 1714 1739 1733 1734 1575 1764 1223 1330 1611 1683 1779 1768 2014 2300 1530 1529 1589 2162 2916 3081 2818 2567 3001 3654 3626 3776 3012 2844 2872 2806 2578 3040 2149 1343 2588 3011 2618 2435 2513 3014 2673 2422 2339 1988 2120 2134 2544 1527 581 503 499 644 694 900 849 913 780 867 1690 1663 1861 1940 1942 2462 3599 4195 4154 4218 4234 4053 4187 4226 4346 4464 4609 4809 5034 5139
1521 1552 1767 1689 1618 1754 1792 1933 1911 1754 1684 1857 1905 1512 1304 1388 1669 1574 1750 1824 2062 1267 1055 2170 2865 3188 3348 3646 3589 3688 3480 3690 3877 3200 3974 2993 2794 2952 3409 2664 2454 2336 2042 3400 3352 4282 3562 2876 2538 2795 2976 2826 1440 1309 1160 580 522 529 529 606 684 624 750 639 733 1043 1516 1755 1690 1627 1731 2890 3704 4638 4600 4632 4468 4532 4653 4726 4931 5124 5126 5166 5357
1517 1616 1565 1556 1660 1697 1801 1902 1926 2024 1602 1724 1848 1924 1766 1684 1720 1661 1847 1599 1474 1267 1733 2350 2937 3307 3807 3562 3465 3988 4025 4301 3843 3104 3257 2901 2807 3203 2656 2681 3116 3691 4293 3741 2441 2707 3052 3579 2876 2512 2870 1855 1539 1098 1127 586 495 525 560 444 623 741 662 631 530 595 1028 1510 1500 1896 1824 2323 2715 2905 3717 5080 4814 5017 5140 5229 5324 5506 5441 5528 5534
1541 1542 1629 1521 1840 1770 1719 1420 1915 1962 2278 1988 1827 1823 1720 1510 1590 1473 1416 1289 1191 1547 1837 2219 2706 3204 3610 3726 3967 4208 3585 3546 3515 4093 3896 3208 2994 2771 2509 2077 3296 3562 4122 4107 3180 3136 3264 3477 2986 1909 2010 2192 2326 1828 1483 479 558 497 525 545 378 528 751 459 312 419 571 629 776 1888 1993 2333 2528 2401 2938 2908 4004 4718 4729 5450 5898 6020 6002 5608 5943
1395 1422 1556 1570 1582 1544 1784 1720 1795 1824 1854 1892 1695 1403 1244 1226 1210 1611 1086 615 1194 1510 1705 2087 2473 3103 3442 3444 4139 4845 4051 3735 4184 4744 3341 3729 2699 2812 2591 3796 4096 3347 4100 3162 2524 2192 2079 2874 3238 2699 2058 2410 3024 2125 848 525 627 619 510 547 546 549 378 375 211 385 346 506 489 1110 1306 1837 2222 2313 3311 2743 2752 3112 4320 5211 5853 5621 5388 5302 5493
1335 1448 1423 1379 1324 1325 1454 1774 1705 1577 1521 1580 1261 1046 960 870 645 1296 837 527 1121 1318 1639 2024 2517 3004 3359 3749 3996 4648 4574 4420 3874 4349 4195 2622 2666 2786 2589 2627 3806 3741 3382 3312 3333 3287 2476 2719 2566 3283 2992 2586 3028 2455 1235 282 618 480 461 369 486 508 284 592 576 173 451 316 383 724 950 1032 1332 3451 2612 2269 2660 2678 2978 4027 5007 5340 5322 5094 5044
1188 1362 1202 1094 1108 993 1241 1302 1387 1252 1213 1200 1218 699 666 501 847 520 1612 356 860 1343 1544 1997 2571 2834 3119 3494 4065 4678 4540 4329 4393 4485 4654 4579 4660 3434 2217 3657 4114 3545 2960 2445 2336 2695 2522 2629 2268 2977 3658 2928 2802 2301 1483 667 326 434 248 235 325 407 358 465 698 1654 220 147 243 219 525 471 850 1570 1844 1232 954 1543 2232 2955 4343 4846 5120 5025 4788
1113 972 889 751 744 952 1003 1170 849 937 964 1270 1072 742 708 952 1148 1095 1293 1496 1701 1852 1726 1983 2481 3001 3138 3545 4064 4207 4729 4407 4650 5139 4430 4649 3892 4236 3614 3327 4207 4340 3536 2382 3073 2977 3087 2754 2799 3033 3803 3514 2822 2476 1944 1276 364 940 144 215 44 708 196 441 533 279 266 246 218 494 242 224 471 501 630 452 475 564 1757 2009 1991 2512 2845 3427 3937
941 894 746 606 626 671 757 788 844 1045 1095 1668 1024 524 1143 1170 1077 1193 1118 1312 1532 2322 2222 1867 2509 2908 3212 3685 4326 4004 4366 4554 4490 4827 4747 5205 4483 3700 4438 3892 3655 3472 2907 2520 2531 3516 3359 3173 2942 4704 2500 3700 4066 2316 1630 1408 1804 1814 1192 215 322 251 126 244 214 405 618 363 439 428 190 862 752 888 494 595 886 797 1230 3174 3001 2785 2214 1840 2411
937 801 640 552 588 566 755 1054 1039 1198 1434 1460 640 499 1166 1131 1334 1259 1248 1212 1251 1573 1766 1796 2413 2680 3115 3504 3953 3860 4130 4623 4897 5092 4511 4705 4772 4352 4281 3524 4451 4295 3660 3054 2862 3811 3440 3574 4587 4708 3960 2183 2669 1655 1630 3308 1006 948 2053 1290 613 511 1682 1722 462 394 353 424 475 346 323 622 1257 839 882 657 1082 1691 1556 1960 2090 2413 2479 2353 2513
895 696 558 758 700 771 1082 1125 1207 1307 1528 1521 988 1417 1278 1063 1362 1500 1589 1304 1602 1329 1586 1967 2149 3031 3208 3512 4069 4128 4314 4549 4386 4250 4745 4348 4242 4679 4328 4047 4999 3077 5347 6567 3977 5379 3834 3782 4078 2937 3144 2126 1671 2054 1815 1101 823 1521 1466 1472 2340 1253 3226 1318 1142 797 642 525 570 1250 1094 286 770 828 950 435 568 823 1170 1521 2249 2723 2295 2354 2704
826 629 498 677 552 808 1149 1214 1187 1266 1387 1815 1286 1408 1730 1111 1341 1547 1579 1498 1626 1528 1662 1946 2416 2525 3309 3759 4061 3864 4124 4205 4129 4516 4238 4239 4305 5044 4305 4494 3852 4761 3759 3297 3542 4132 4222 3516 3041 3086 2852 2948 2376 2124 2004 1791 1331 2673 3290 2056 1783 1166 1898 1186 2290 1761 909 664 846 629 1305 887 706 1532 1398 457 943 1220 1498 1675 1674 1930 2240 2856 2928
735 567 765 770 539 1008 1247 1170 1221 1274 1355 2178 2079 1435 1788 1354 1256 1475 1949 1706 1692 2190 1745 1982 2298 2934 3395 3733 3882 3882 4036 4082 3706 4314 4133 4395 4011 3387 3855 4656 3546 4757 4012 3238 3568 4011 2615 2914 2845 3831 2828 1422 1782 1644 2572 2058 2178 1925 1368 1347 1417 1996 1640 1135 1660 1464 1356 625 1974 1036 843 543 493 1558 1228 1265 1270 1712 1323 1289 1799 1949 1874 2011 2379
707 622 874 728 776 1288 1401 1179 1238 1200 1234 2680 2026 1554 2804 1424 1408 1676 2259 2000 2265 2112 1746 2117 2354 3196 3266 3634 3959 3718 3582 3642 3307 3753 3941 4275 3962 3984 3883 3742 4976 3631 2741 4914 2846 3550 2780 2993 3168 3340 2597 1283 1259 2302 2775 2774 2359 3551 1637 1931 1635 1654 1785 1540 1063 1219 2643 1672 1583 1124 1060 1026 597 1490 1126 1207 1144 1564 1310 951 1012 1155 1570 1645 1669
708 647 877 773 1049 1251 1506 1314 1295 1280 1240 1902 1981 1921 3008 1602 1656 1957 1784 1491 1997 1860 1830 1919 2431 2775 2764 3150 3309 3347 3387 3168 3172 3511 4182 4488 4032 3779 3756 4286 3711 4175 5568 3375 3964 3776 2448 2714 3007 3386 2904 3312 2330 2486 2996 3152 2814 2288 1881 2595 1512 1041 1017 1223 1098 1184 1656 3659 1728 956 920 617 791 1013 1145 1250 1121 1176 1694 1211 1021 932 1070 1312 2104
694 714 814 910 984 1130 1464 1165 1586 1159 1312 1744 2708 3003 2730 2476 2260 2019 1823 1925 1964 1663 1593 1855 2109 2313 2466 2668 2600 2922 3167 3062 3480 3465 3738 4490 3872 4296 4006 3760 3732 3201 4974 3602 2648 3252 2363 2564 3771 3046 3342 4918 3503 2733 3438 3362 2898 2307 1997 1780 2214 2034 1959 1518 1564 1932 1237 1439 2309 1273 879 642 614 866 742 938 1173 1229 1679 1748 983 945 1336 1569 2287
620 699 716 959 1071 1139 1467 1060 1811 1397 1286 1921 2582 2708 2512 2686 2447 2022 2215 2082 1985 1714 1709 1785 2148 2578 2244 2587 2720 2714 2738 3261 3380 3734 4124 4342 4108 4032 4198 4371 3530 3655 4394 3577 3132 2802 3418 3518 4049 3346 5462 5286 4080 2805 2741 4046 2482 2107 3370 2140 2966 2633 1415 1697 1389 1569 1370 970 1117 1463 1033 1077 886 690 1153 1307 1734 1456 1398 1254 1081 1164 1388 1963 2946
453 662 605 1047 1116 1235 1435 1030 1805 1479 1154 2261 2511 2700 2550 2693 2370 1900 1901 1435 1442 1786 2490 2745 2388 2670 2240 2067 2688 2854 3060 3637 3587 3859 3923 3979 4393 4104 4001 4261 4381 3681 4902 3116 2654 3188 2662 2886 4162 3706 4279 4217 4112 3934 3554 3229 3232 2262 1876 2041 2923 2041 1560 1359 1824 1018 1166 1229 1164 1292 1003 1112 1091 723 1377 1618 1197 1079 1306 982 1028 1778 2057 2879 3062
326 550 539 1006 1129 1361 1485 1082 1707 1582 1284 2311 2414 2431 2445 3053 2247 2141 1166 1799 2200 1948 1889 2200 2270 2553 2922 2634 2292 2648 2864 3106 3646 4001 3664 3703 3883 4572 4024 4298 4122 4105 4449 2586 2170 2312 2686 3242 3774 3948 3555 4092 3960 4068 3948 4222 3548 3208 2358 1710 1866 2780 1990 1719 1478 1063 1054 1388 1148 1155 1126 1132 872 942 1580 1099 945 1070 1260 1049 1190 1142 1340 1393 2367
223 386 498 1122 1302 1383 1590 1220 1577 1566 1549 2281 2082 2353 2246 2410 2206 2514 1178 1811 1360 1959 1926 2346 2708 3098 2550 3137 2602 2909 2517 2640 2817 3787 3492 4019 3677 4537 4111 3763 3705 5432 4723 2556 3002 2496 2559 2962 3162 3887 3893 3515 3462 3337 3632 3363 3302 2809 2374 2248 2528 2068 1410 1670 1334 1174 1447 1616 1307 1464 939 1142 1034 1124 1080 1562 2202 1773 980 1206 1118 1215 1908 2634 2872
Wind_Speed
9 6 7 3 1 4 5 8 11 13 14 14 14 14 14 15 15 14 15 15 14 14 15 17 18 18 20 20 19 18 18 16 16 19 21 22 21 21 19 17 17 17 15 16 14 13 12 13 9 5 5 5 6 9 8 7 6 5 4 3 4 5 7 8 8 9 9 8 6 4 4 5 5 6 7 7 7 8 8 9 10 8 8 9 11
10 10 8 7 2 1 3 6 8 9 10 9 8 8 10 11 10 10 10 10 10 11 13 15 15 16 18 20 19 18 17 16 15 17 20 20 20 19 18 16 16 16 15 16 15 13 12 13 11 5 3 4 5 6 7 6 6 7 6 6 4 4 5 7 8 9 8 6 4 3 3 3 4 5 7 9 9 7 8 9 10 7 8 12 9
9 9 9 6 3 2 3 4 5 6 5 5 6 6 7 7 7 7 7 7 8 10 13 14 14 16 18 19 20 19 18 16 15 15 17 19 18 17 17 17 16 16 16 16 15 14 13 12 11 7 3 2 4 5 4 5 6 8 8 7 6 4 4 5 7 8 7 6 3 4 4 4 3 3 5 7 5 7 9 10 11 10 8 9 7
7 9 8 4 2 3 3 3 3 3 3 4 5 6 5 6 6 7 6 7 8 11 13 14 15 16 18 19 20 20 17 15 14 13 15 17 17 17 17 16 16 16 16 15 15 14 14 12 11 8 4 3 2 3 4 3 6 7 8 8 6 6 6 5 5 5 6 5 4 3 7 5 0 5 6 7 8 8 10 11 11 10 9 7 6
5 8 7 5 4 4 2 3 3 3 4 4 5 5 5 6 6 5 5 7 9 11 13 14 15 16 17 19 19 19 17 14 12 13 13 15 16 16 16 15 14 14 15 15 13 14 13 11 11 8 5 5 4 1 2 4 6 6 5 5 6 6 5 5 8 8 7 5 5 5 7 6 4 4 5 7 8 8 9 9 8 6 4 3 3
6 7 5 4 4 5 3 3 3 3 4 4 4 4 4 5 6 5 5 7 9 10 12 13 14 15 16 17 18 18 17 14 11 11 12 14 14 15 15 14 14 14 15 15 14 14 14 12 11 10 8 5 4 2 4 4 4 3 2 2 4 6 9 11 12 13 11 4 3 6 6 6 5 2 5 6 6 7 6 5 4 2 1 2 2
4 5 4 4 5 5 2 2 3 3 4 4 4 4 4 4 5 4 6 8 9 10 11 13 14 13 14 16 17 17 16 14 12 11 12 13 14 13 13 13 14 14 14 13 14 14 14 12 10 10 9 7 6 3 2 3 2 2 3 4 3 6 10 12 13 12 9 8 8 5 6 6 6 5 3 3 3 3 2 1 2 2 1 2 2
4 3 4 4 5 3 3 3 3 3 4 4 5 5 5 5 4 4 6 9 9 9 11 13 13 12 12 14 15 16 16 15 13 12 13 14 13 12 11 12 13 13 14 14 14 14 13 13 10 8 9 7 5 4 2 2 2 4 5 5 5 9 12 13 13 13 11 9 7 5 5 7 6 4 2 1 0 1 3 3 3 2 3 4 4
2 2 2 2 3 6 5 4 4 4 5 5 6 6 7 6 6 6 8 9 10 11 11 12 13 12 13 13 14 15 16 16 15 12 12 14 14 13 12 12 12 13 14 14 14 14 13 12 10 6 6 6 4 3 3 2 4 6 7 7 8 11 15 15 16 14 12 11 7 5 3 6 6 6 2 1 2 3 3 4 4 3 4 3 5
4 1 2 3 2 8 7 7 7 7 7 6 7 8 8 9 8 8 9 11 11 12 12 12 12 14 14 14 14 15 16 17 16 13 13 14 14 12 12 12 13 14 13 13 14 15 12 9 7 6 6 5 4 4 4 2 4 7 8 9 10 12 15 17 17 14 12 6 5 4 4 2 7 7 4 5 5 6 4 3 6 5 4 4 5
5 2 2 2 4 9 9 9 9 8 8 8 8 10 10 11 9 9 11 12 12 12 12 12 13 13 15 15 14 15 16 16 16 14 13 15 15 13 12 13 13 13 12 12 10 10 9 8 6 6 5 4 4 4 3 3 5 8 10 11 12 13 16 16 17 16 10 2 4 5 2 2 9 10 5 4 5 4 3 3 2 2 3 4 5
6 4 2 2 8 10 10 10 11 10 10 10 11 11 11 10 10 10 11 12 13 12 11 12 13 13 12 13 14 14 15 15 16 13 13 15 14 13 12 11 11 11 11 10 9 8 6 5 6 6 5 4 4 3 3 4 6 9 12 13 14 15 16 17 14 10 6 3 4 4 4 6 9 8 4 5 5 4 3 3 2 2 3 4 5
6 4 4 3 5 11 12 12 12 12 11 11 11 11 11 10 10 10 11 11 11 11 11 11 11 11 10 11 13 13 13 14 14 11 12 14 13 11 10 9 9 8 7 6 6 6 5 6 6 5 4 3 3 3 3 4 7 10 12 13 15 16 15 16 13 6 4 4 4 4 6 10 11 6 6 7 6 6 5 4 3 3 2 3 5
7 7 5 5 6 13 14 13 13 13 12 10 10 11 11 11 10 10 11 11 10 10 10 10 10 9 8 8 12 11 10 11 10 8 10 10 9 8 7 7 7 7 5 5 6 7 5 6 6 6 5 4 4 3 4 5 9 12 13 14 15 15 16 15 10 5 3 3 4 4 7 10 10 7 7 7 7 6 5 4 3 3 3 4 4
10 8 5 5 5 6 14 12 12 11 11 11 11 11 12 11 10 10 11 10 10 10 8 8 9 7 6 7 9 8 8 7 6 6 7 7 6 7 7 7 6 6 5 6 7 7 7 7 7 6 5 6 5 5 5 8 11 13 15 15 15 15 17 13 11 5 4 4 5 4 7 10 6 5 6 6 6 6 5 4 3 3 3 3 4
11 9 7 5 4 4 4 10 11 9 8 8 8 9 10 10 9 10 10 10 10 8 7 6 6 4 4 5 5 5 5 4 4 5 5 6 6 6 7 7 7 7 7 7 8 8 8 8 8 8 7 7 7 7 8 10 12 15 14 16 16 15 17 17 10 7 5 7 7 7 7 9 4 4 4 4 4 5 6 5 5 4 4 4 3
9 9 7 7 5 4 4 5 7 10 8 6 7 7 7 8 8 8 8 8 9 7 5 4 2 2 3 3 3 3 3 3 4 4 3 6 6 7 7 8 8 9 9 10 9 9 10 10 10 9 9 9 9 10 11 12 14 14 15 16 16 15 16 17 13 6 5 7 7 8 7 8 5 5 3 2 2 3 3 3 2 4 4 4 3
9 8 8 7 6 5 5 4 4 2 3 4 5 7 7 7 7 6 6 6 6 6 4 2 2 3 2 1 1 1 2 3 3 3 4 6 8 9 9 10 9 10 11 11 11 11 11 12 11 10 10 12 13 12 13 14 14 16 16 17 16 16 15 16 11 8 3 6 7 7 7 5 4 3 2 2 3 2 1 2 2 3 4 4 5
7 5 6 7 5 5 6 4 4 2 1 3 3 5 8 7 7 6 6 6 6 5 4 1 1 1 1 1 1 1 1 2 1 3 6 8 10 10 11 11 13 14 15 15 13 13 13 13 13 13 14 16 16 17 16 15 16 16 18 18 18 17 17 13 11 6 5 6 7 6 7 4 3 3 2 2 1 1 1 3 2 4 7 4 5
6 5 5 4 6 6 5 4 3 3 2 3 4 4 6 7 7 7 7 6 5 4 3 1 1 1 2 2 1 4 3 4 1 5 6 8 10 11 12 13 14 16 18 16 16 16 16 17 16 16 17 18 18 18 18 18 18 19 17 19 19 18 13 10 8 3 3 5 5 5 4 4 4 4 4 3 4 4 5 3 5 4 6 7 7
6 6 6 5 5 6 6 5 5 4 4 4 5 5 5 5 4 6 6 5 4 2 1 1 3 4 5 3 3 7 10 10 7 9 6 11 11 11 13 14 16 18 20 18 17 18 18 19 18 18 18 18 18 19 19 19 19 19 19 19 20 15 12 9 5 4 3 3 4 4 4 5 6 6 6 6 7 7 4 4 6 7 6 7 8
7 6 6 6 6 6 5 5 5 4 4 4 5 6 6 5 6 6 5 3 2 0 5 8 8 13 6 9 10 9 9 10 10 8 11 12 12 12 14 16 17 20 20 19 20 20 21 20 20 20 20 19 21 17 16 19 20 20 20 21 15 12 12 7 3 2 1 2 3 4 7 7 7 7 8 7 6 5 6 7 7 6 7 7 8
8 7 6 7 6 5 6 6 6 5 3 3 4 4 5 7 9 8 8 4 4 6 8 9 12 13 12 12 12 11 9 10 11 10 13 12 14 14 16 17 18 20 20 22 22 22 22 22 22 21 20 21 18 17 16 15 16 19 19 16 11 10 10 6 0 1 1 1 3 7 8 8 8 9 9 10 9 8 8 8 9 10 9 8 9
9 7 7 6 6 6 7 7 7 6 4 4 5 5 5 7 8 9 9 8 7 8 10 10 11 11 12 13 14 14 11 11 11 11 12 14 15 16 17 18 19 20 22 21 22 23 24 23 23 22 20 17 17 17 16 15 15 14 12 13 13 11 7 1 1 0 1 2 4 10 9 9 10 11 11 12 12 11 11 12 9 10 11 12 12
8 8 6 7 7 5 5 6 7 6 4 5 5 6 5 6 8 10 10 9 9 11 12 12 10 10 12 15 15 16 15 13 14 13 13 14 15 17 17 17 17 17 20 18 18 18 18 17 17 17 15 16 17 17 16 15 14 14 12 10 11 10 3 3 1 1 2 3 5 11 11 10 11 12 13 13 14 13 14 14 15 15 15 15 15
7 7 8 7 7 6 5 6 6 5 5 5 6 6 6 7 8 10 10 10 9 11 12 11 9 11 12 15 17 17 16 13 13 13 14 13 15 16 16 16 15 15 15 16 16 15 15 15 15 15 14 13 16 16 17 15 14 14 12 9 7 3 3 2 2 2 2 3 6 13 13 12 13 14 14 14 15 16 15 15 16 17 17 16 16
7 7 8 7 7 7 7 6 6 5 6 7 7 7 8 8 9 10 10 10 10 12 11 12 11 12 13 15 18 18 17 14 15 15 14 14 14 14 14 14 13 14 12 12 15 14 13 14 14 16 15 13 16 16 16 18 15 11 6 5 6 3 2 1 2 1 3 4 7 15 13 14 15 15 15 16 17 17 17 18 19 19 19 19 19
8 9 8 8 7 8 7 6 6 7 8 8 8 7 7 8 10 11 10 10 10 12 12 13 13 13 14 16 18 18 16 16 17 16 13 11 11 11 11 12 13 14 11 12 16 16 15 15 16 17 19 19 18 18 13 10 10 10 8 7 6 5 3 2 2 3 3 5 6 11 14 16 17 17 17 17 18 19 19 20 21 21 21 21 20
10 8 8 8 9 9 8 7 7 9 9 8 8 8 7 8 10 12 11 11 12 14 14 14 15 15 17 18 19 17 15 14 14 12 10 9 9 10 12 13 14 16 14 15 18 20 17 15 19 19 17 18 20 14 10 11 10 10 10 8 6 6 4 3 4 5 5 5 6 9 15 16 16 17 17 17 18 18 19 19 20 20 20 21 20
10 9 8 7 9 10 9 9 8 8 9 8 9 9 9 10 12 13 13 12 15 15 16 15 17 17 18 20 21 14 11 11 12 12 8 9 10 12 13 15 16 18 18 20 16 14 15 16 16 17 17 19 19 14 14 10 12 12 10 11 8 7 7 5 6 6 5 5 6 7 14 14 15 15 17 17 18 18 18 19 18 19 19 20 20
10 8 6 7 9 10 9 9 8 7 8 7 9 9 9 11 13 13 13 15 16 16 17 18 17 15 18 16 10 11 10 10 10 11 8 9 11 13 15 15 18 19 19 18 15 15 14 13 16 16 17 19 19 17 11 12 12 12 12 11 8 6 7 7 5 5 5 6 6 6 9 15 15 16 16 17 17 18 18 18 18 18 19 19 19
11 9 6 6 9 10 10 9 8 8 8 7 8 8 9 12 13 13 14 16 17 16 18 18 15 15 15 13 10 9 9 9 11 11 9 9 12 15 16 16 18 19 16 13 15 15 14 15 15 16 17 17 18 19 14 9 12 14 13 11 7 7 7 7 6 5 5 6 6 7 7 9 15 16 17 18 18 18 17 17 18 19 19 19 19
8 11 9 9 10 9 9 8 8 10 10 9 8 8 9 12 14 14 15 16 17 17 17 15 14 14 13 11 10 9 9 9 10 9 9 10 12 16 17 17 18 16 13 12 12 11 11 13 15 15 17 17 16 16 13 11 11 13 11 10 8 6 5 5 7 4 5 6 7 7 8 9 10 14 15 16 17 17 17 17 18 20 20 20 20
7 7 9 9 8 8 8 8 10 11 11 10 7 7 9 11 13 14 14 16 16 15 15 13 12 12 12 12 9 10 11 11 9 10 11 12 15 16 16 16 16 15 11 10 12 13 14 13 13 14 17 17 15 16 15 13 11 11 10 10 8 7 6 7 6 5 4 6 7 7 9 9 10 10 10 14 16 16 17 18 20 21 21 20 20
6 8 10 10 9 8 8 9 12 12 12 10 9 8 8 10 12 13 14 15 14 14 13 12 11 11 10 11 11 11 11 10 10 11 13 14 16 17 16 16 13 10 10 10 10 13 13 13 13 13 14 13 13 14 15 11 7 9 12 9 8 5 5 5 4 4 4 6 6 9 10 9 9 9 9 10 12 17 18 19 21 21 21 20 20
10 8 8 9 10 10 10 9 11 12 11 11 9 9 9 9 11 12 12 13 11 12 12 11 11 10 10 10 11 11 11 11 11 11 11 15 15 14 13 13 10 9 10 10 9 11 13 13 10 10 11 13 13 14 14 8 4 4 7 8 9 7 5 4 4 5 4 7 8 10 11 9 9 10 9 10 11 14 18 18 19 21 21 20 19
10 9 8 9 9 10 10 10 12 12 11 12 10 8 7 7 8 11 12 12 9 9 10 10 9 9 9 9 10 11 11 11 11 12 13 14 16 14 11 9 9 10 10 11 11 8 9 11 11 10 8 10 11 13 13 9 9 8 4 5 5 4 3 4 3 5 6 7 8 9 8 8 8 10 11 12 13 14 15 18 19 20 20 19 18
8 10 10 9 9 8 8 9 9 9 7 7 5 6 5 6 8 10 11 11 9 9 8 7 8 8 8 8 8 10 10 9 11 13 12 14 16 15 10 6 6 8 8 9 9 10 10 8 11 10 9 9 11 11 13 9 5 9 5 2 3 3 3 2 4 3 5 8 7 7 8 8 8 9 10 10 13 13 13 15 20 17 16 15 15
6 7 6 5 6 7 5 7 6 3 3 1 3 3 5 4 6 7 8 8 9 8 5 5 6 6 6 8 7 8 9 9 11 12 11 12 14 14 8 7 6 5 6 8 10 10 10 9 9 10 7 7 9 11 11 9 5 8 6 3 nan 3 1 2 4 5 4 4 4 1 2 3 8 11 9 10 12 13 13 15 16 14 13 13 13
4 4 6 6 4 6 6 6 4 4 3 1 2 3 1 1 2 5 7 7 6 6 6 3 4 4 5 6 6 5 7 8 10 11 11 12 13 12 10 8 5 4 5 5 8 9 9 9 10 9 10 9 7 7 8 7 6 5 4 3 3 5 3 4 5 5 3 2 1 2 4 2 9 9 8 5 6 10 15 15 14 14 13 13 12
4 4 6 6 6 7 7 6 6 4 3 3 4 3 1 1 2 2 1 3 3 4 4 4 1 3 3 4 4 4 6 7 8 10 11 11 10 10 10 8 7 4 3 5 6 8 9 9 8 7 8 7 7 6 4 4 6 7 7 6 5 5 4 3 4 4 2 2 2 4 2 3 5 7 5 4 4 8 13 11 10 11 14 14 11
5 4 5 5 7 8 6 7 7 4 2 2 3 2 2 2 2 1 1 2 2 2 3 4 3 2 1 3 4 4 4 5 6 7 8 8 8 8 8 9 8 5 4 5 6 7 8 8 8 8 7 6 6 5 7 3 6 4 5 6 7 6 4 4 2 2 1 0 1 3 3 2 3 5 4 5 5 8 9 7 6 9 10 11 12
6 5 4 5 7 6 6 7 7 4 2 2 3 2 3 4 4 2 3 1 2 2 3 3 2 1 1 2 2 3 4 4 5 5 6 6 6 7 8 8 7 7 6 6 6 8 7 7 7 5 9 8 6 5 5 3 2 4 3 2 4 3 6 5 1 2 1 3 4 6 2 2 4 5 7 6 4 7 9 8 7 7 7 8 10
6 5 5 4 4 4 6 7 7 4 2 2 3 2 3 4 6 6 4 4 2 1 2 2 2 2 1 1 1 2 3 4 5 4 5 4 5 5 7 7 8 6 5 6 7 7 8 8 7 6 4 7 7 6 4 4 2 1 4 2 3 2 4 5 5 5 1 2 2 2 1 3 4 6 5 3 3 5 7 5 5 6 8 10 9
5 5 5 3 2 3 5 7 5 4 2 2 4 4 6 6 4 5 3 3 3 3 2 3 2 1 2 1 1 1 2 3 3 3 2 3 3 4 5 7 8 6 6 6 7 9 8 8 8 7 5 3 6 6 5 4 3 1 1 2 4 3 3 5 5 4 2 1 2 3 3 4 4 3 5 4 4 6 7 4 5 8 9 8 7
5 6 5 4 3 2 4 5 4 4 3 2 3 4 3 5 4 4 4 2 2 1 1 1 1 0 0 1 1 1 1 1 1 2 2 1 2 3 4 6 6 6 5 6 6 7 7 7 7 5 5 3 3 4 6 4 1 3 2 2 3 3 4 4 2 4 4 3 4 2 2 2 1 1 1 2 3 4 5 6 6 7 8 7 7
5 5 5 4 5 2 2 3 3 3 3 2 2 3 3 3 2 3 2 2 2 2 3 2 1 2 2 2 1 1 1 1 1 2 1 1 2 3 4 4 5 4 6 5 6 6 6 5 6 7 6 5 3 4 5 5 4 2 1 3 4 3 5 1 3 3 3 5 3 4 3 1 1 1 1 2 4 2 5 7 5 6 7 6 7
7 5 5 5 7 2 2 2 3 3 2 3 3 3 3 1 1 2 2 2 2 3 3 3 2 3 2 2 2 3 1 2 1 1 1 0 1 2 2 3 3 5 6 5 4 4 7 7 6 6 6 4 4 4 5 3 1 4 3 4 5 4 0 1 2 3 4 3 7 5 3 3 2 2 2 2 4 2 4 4 6 9 7 6 8
8 4 5 6 6 4 3 2 3 3 2 3 3 3 2 1 2 2 3 4 4 3 2 2 3 3 2 3 3 2 3 3 2 2 2 2 2 2 3 3 4 5 4 3 3 3 5 6 6 4 4 4 4 4 4 5 2 4 4 4 5 3 2 3 4 3 3 2 6 6 8 5 2 3 2 5 6 4 6 10 12 10 8 8 10
10 6 6 8 6 5 4 3 3 4 2 4 4 3 1 2 3 3 4 6 4 3 2 2 3 4 3 4 4 4 3 3 4 4 3 3 3 3 3 4 4 4 3 4 4 5 5 5 5 4 3 5 5 2 3 5 5 4 5 5 4 2 0 3 2 3 3 7 9 6 3 4 6 5 3 4 5 6 10 12 10 8 8 10 12
12 7 8 8 7 6 5 3 3 5 3 3 3 2 1 3 3 3 4 3 2 2 3 3 4 5 3 5 5 6 4 5 4 6 5 4 4 4 4 6 5 4 2 3 5 4 5 6 6 4 3 4 5 4 5 6 6 5 4 4 6 6 5 4 5 5 5 4 3 1 4 6 9 5 3 4 9 12 12 10 9 9 9 11 13
Wind_Direction
104 98 107 61 319 292 271 261 259 257 257 255 248 246 248 245 244 243 244 244 241 243 241 239 241 245 250 255 256 255 255 254 253 256 258 261 262 263 266 262 261 265 262 261 264 268 271 273 268 230 199 192 204 214 223 229 244 234 219 222 254 271 288 298 302 294 290 287 292 304 312 330 340 339 347 356 348 343 347 337 343 350 2 15 341
89 100 106 104 37 335 282 277 273 264 254 250 248 245 238 234 230 229 236 238 239 234 232 239 248 254 258 259 259 260 260 258 255 256 260 260 262 265 262 266 269 271 267 265 265 267 273 274 275 272 221 195 205 210 198 213 216 203 191 190 211 255 284 298 299 296 292 292 295 295 302 319 336 350 346 352 2 7 332 323 318 7 23 352 334
105 109 104 91 17 5 324 308 296 278 263 246 247 247 238 226 223 228 233 230 230 231 233 240 256 262 262 264 263 262 263 263 260 261 262 263 264 266 268 268 273 273 266 267 270 277 276 272 278 282 266 207 191 205 201 177 207 193 182 187 191 209 248 277 290 284 271 259 257 277 281 276 265 276 304 316 310 323 321 322 326 328 5 335 350
103 102 98 76 16 46 330 326 309 289 276 254 248 248 246 243 234 236 236 233 235 238 239 250 261 260 262 265 269 269 268 267 267 269 269 270 270 271 269 268 273 273 269 268 266 268 270 282 288 287 293 281 229 186 157 187 201 195 187 181 186 189 200 213 237 235 245 246 236 207 120 116 106 285 288 298 315 309 312 316 321 324 330 341 354
85 93 97 105 103 91 13 333 304 297 276 260 252 254 258 252 248 249 247 242 239 242 247 252 254 256 263 269 272 274 275 273 279 281 277 276 275 274 271 266 263 266 271 266 259 265 274 285 288 297 312 309 316 319 145 194 204 196 187 166 173 169 163 142 143 152 177 228 230 152 123 122 120 264 281 292 296 303 310 317 320 325 329 347 7
84 94 99 103 96 93 47 315 315 305 284 281 275 266 255 255 260 256 248 239 237 240 247 253 257 263 269 274 276 278 278 278 285 285 280 276 273 270 267 263 261 266 268 266 264 268 268 268 282 291 296 301 297 246 167 176 195 176 151 123 126 127 126 129 131 135 144 201 225 131 134 124 117 114 290 296 302 308 314 320 328 331 333 343 11
38 92 108 113 106 95 58 329 310 316 313 305 298 285 270 255 249 247 248 243 237 239 247 253 254 263 271 277 279 281 280 280 281 281 277 272 268 264 259 261 263 260 259 266 271 276 275 272 279 290 293 294 288 269 178 159 143 100 67 66 92 112 112 116 122 124 130 132 129 126 130 124 115 106 287 302 311 313 333 32 65 54 34 62 40
52 86 91 105 113 59 350 319 315 321 319 304 302 296 281 268 254 248 249 243 250 249 250 254 256 265 273 279 283 285 285 281 278 276 274 272 268 260 252 251 257 260 266 269 274 275 278 275 271 277 281 284 279 259 201 149 114 82 80 95 110 116 119 117 117 121 128 126 116 109 116 119 117 113 276 284 24 105 118 124 108 73 27 19 30
5 73 96 83 80 339 334 324 327 337 320 308 304 300 293 281 275 272 267 263 262 261 258 262 268 273 274 278 284 290 290 285 279 273 270 268 264 255 250 249 247 253 255 265 271 272 274 272 269 270 276 276 272 247 210 154 106 91 99 113 128 128 125 123 123 115 115 112 108 116 126 119 122 120 132 130 104 90 92 110 100 49 26 12 12
328 4 60 80 52 337 334 339 341 334 321 308 308 305 300 288 285 283 278 275 270 272 273 267 268 275 279 280 281 288 287 283 278 272 268 266 261 258 251 245 245 250 258 263 265 268 266 263 263 254 245 242 236 222 201 163 116 107 105 117 127 127 125 124 126 119 116 130 110 98 108 132 120 127 140 135 124 129 116 106 103 104 88 20 11
302 341 59 61 354 331 334 341 338 331 320 317 313 303 298 295 295 294 287 284 281 283 283 280 279 278 276 278 279 281 279 277 272 267 267 266 265 261 255 249 245 245 258 262 261 258 257 262 255 238 222 217 221 210 193 157 120 109 111 120 128 126 120 114 112 105 100 115 112 122 166 199 129 125 133 128 115 109 100 98 84 67 38 18 12
312 329 12 41 333 331 333 335 334 331 326 321 314 305 296 296 302 300 296 291 286 286 284 282 282 280 280 282 283 276 267 267 266 265 267 266 263 259 253 247 240 240 243 249 252 244 229 228 224 215 202 197 204 198 182 151 123 111 123 125 127 122 118 117 109 94 90 115 135 142 130 119 118 122 116 104 102 98 93 95 95 65 39 27 16
306 323 343 356 342 335 334 333 331 329 325 319 316 313 303 302 304 303 296 290 287 286 283 284 282 287 297 293 284 276 268 266 267 268 267 262 256 246 238 230 218 227 238 230 222 214 216 209 198 193 184 184 184 165 165 140 116 115 121 124 120 119 117 116 107 102 110 116 116 126 130 127 126 124 116 105 103 110 124 116 97 82 62 38 34
308 318 338 354 1 335 333 331 328 325 320 315 315 313 308 305 306 306 300 292 287 283 285 289 291 292 291 292 286 281 275 271 271 266 255 250 241 223 217 204 193 197 197 191 185 182 172 174 175 168 156 157 142 147 146 124 113 116 120 119 116 117 118 117 101 106 117 101 123 135 135 126 121 114 103 106 110 111 112 113 98 87 63 49 43
309 315 344 1 355 346 327 321 320 322 320 321 314 310 310 312 313 311 304 297 293 290 292 296 294 289 286 288 285 285 282 277 265 248 234 219 208 199 188 181 175 163 161 163 160 156 156 152 150 150 142 135 129 130 133 114 113 117 120 121 121 126 130 119 128 125 128 134 130 137 129 122 102 91 96 103 105 109 107 99 104 81 78 77 68
307 319 334 350 349 346 326 318 315 319 318 317 309 309 312 317 320 312 307 302 292 291 298 297 287 272 289 285 281 279 277 266 244 231 207 176 178 178 170 157 145 133 137 148 147 143 143 144 142 144 145 131 123 120 115 113 110 117 121 121 122 128 124 121 132 127 139 138 136 132 121 114 60 78 86 93 112 122 124 136 141 133 116 96 108
308 317 332 344 347 337 323 329 335 329 332 324 311 312 313 321 328 318 313 303 296 296 299 302 309 304 291 281 276 261 263 246 221 213 187 150 145 146 145 136 134 134 140 143 138 135 135 136 135 134 128 121 106 105 109 111 115 113 115 115 113 116 117 125 143 144 146 136 130 130 120 115 71 62 64 88 105 99 107 106 124 140 135 116 89
312 328 338 350 342 336 326 330 328 4 19 343 334 327 335 335 335 331 319 300 307 312 313 322 307 283 271 231 204 226 255 244 214 185 135 114 114 121 124 121 125 131 133 133 129 127 123 121 119 113 107 100 102 106 110 114 116 112 109 107 106 108 113 121 134 143 141 129 132 127 122 91 51 56 41 63 65 68 74 127 84 81 83 72 45
322 316 322 339 334 321 326 316 336 5 107 118 101 1 344 347 341 338 333 335 343 334 326 341 285 273 194 163 174 206 220 234 206 111 97 96 101 106 109 112 119 124 126 121 120 115 113 107 106 106 107 108 112 117 117 113 111 109 108 108 109 112 117 126 135 139 165 146 132 123 111 51 46 23 30 42 69 88 66 36 70 52 47 47 30
332 333 342 345 336 340 340 333 351 345 37 85 79 58 360 353 348 352 352 355 357 348 345 353 90 114 138 164 201 149 158 146 54 97 78 88 93 105 103 112 116 122 121 116 114 111 108 106 108 110 110 112 116 116 114 114 111 110 109 105 106 107 112 116 124 153 166 131 130 122 77 23 19 13 6 11 20 22 20 9 20 27 30 31 48
331 342 9 7 351 343 337 350 15 4 7 56 84 92 47 358 15 2 358 360 359 349 351 42 118 120 132 127 155 147 141 131 126 118 91 111 97 99 108 113 117 118 116 117 114 111 107 107 108 108 109 112 112 111 112 111 109 107 104 101 101 104 108 120 131 165 176 127 127 111 31 16 13 5 1 8 18 7 3 8 19 28 38 32 33
338 357 9 22 3 353 343 345 11 12 24 57 97 120 134 152 136 124 105 88 51 86 144 132 124 132 123 136 137 131 127 124 121 110 124 111 109 99 104 108 110 111 112 112 109 105 107 106 109 110 112 115 113 117 118 115 109 104 102 96 97 104 110 126 144 156 195 133 117 67 8 14 11 4 358 6 19 7 10 9 18 25 29 30 35
348 358 12 19 19 350 345 359 11 24 28 75 105 119 140 142 136 133 120 115 119 144 128 126 129 131 137 134 130 122 117 116 123 116 114 100 108 97 99 102 105 106 106 105 106 106 107 109 109 111 112 111 117 119 115 114 113 104 98 105 109 108 119 117 253 187 130 95 86 18 14 10 7 2 360 3 9 12 13 19 13 20 15 24 31
345 356 1 24 22 9 352 7 12 10 20 69 93 105 120 128 121 121 121 133 147 140 129 122 123 134 136 130 125 124 118 115 101 90 97 113 108 97 96 98 98 98 98 104 107 108 107 111 112 113 120 125 121 117 115 108 106 101 99 104 114 123 120 177 189 118 63 29 52 6 12 11 5 2 2 6 2 6 6 10 16 19 21 23 33
348 347 3 17 22 12 0 20 23 15 23 67 91 106 111 112 114 112 124 139 142 135 125 119 124 132 133 128 124 121 120 110 117 121 121 118 115 110 108 106 107 108 101 110 112 115 118 121 125 123 123 122 119 111 109 106 103 106 110 109 103 109 119 182 176 160 83 44 35 2 8 10 6 6 11 6 6 7 11 2 11 14 17 21 26
340 348 12 8 12 9 13 36 46 34 46 63 70 86 97 111 111 113 127 130 129 118 117 122 127 127 125 122 117 113 117 116 117 114 109 104 99 98 95 96 101 102 106 107 114 116 119 122 122 118 115 115 109 109 104 103 106 115 113 98 97 154 180 180 162 131 65 54 21 0 4 8 11 12 15 10 13 13 15 11 12 12 13 19 26
353 355 1 10 8 5 17 42 54 54 48 61 69 85 103 110 114 109 111 110 113 115 116 124 123 119 117 112 109 110 113 113 107 105 97 93 91 90 90 94 96 97 102 109 112 116 118 122 122 117 114 111 107 105 109 105 107 105 120 148 149 143 161 112 133 99 65 45 29 2 6 10 13 16 18 17 18 21 20 19 19 17 17 21 28
349 352 358 3 11 1 16 32 66 70 70 68 74 77 85 93 100 97 105 112 118 123 120 118 119 114 109 104 104 106 105 104 97 95 88 88 95 101 107 105 100 99 103 105 109 112 113 112 112 116 118 115 107 109 107 114 130 145 134 133 137 123 100 97 54 54 47 45 34 14 10 13 15 17 18 21 22 22 22 23 21 21 22 24 27
345 355 357 358 3 9 13 23 53 69 88 85 94 101 98 103 107 109 117 118 122 123 119 119 114 110 106 104 105 101 101 95 92 95 101 112 111 100 102 105 107 107 109 107 105 105 105 108 106 110 113 111 115 125 129 129 133 134 134 127 116 111 102 55 49 43 42 39 34 25 17 17 19 18 20 23 24 24 25 26 26 25 26 27 28
350 351 359 358 1 9 10 18 35 70 91 102 114 108 109 110 116 113 124 119 117 117 114 111 108 108 106 104 97 95 98 97 100 109 99 102 96 95 101 107 112 114 118 106 105 112 120 123 127 122 120 123 129 128 125 130 131 127 123 109 114 101 86 50 45 38 38 34 34 33 23 25 22 23 23 24 25 26 26 27 30 30 28 28 30
344 346 352 2 10 10 11 17 26 62 92 102 106 108 108 106 110 111 117 112 111 113 113 111 112 113 102 110 117 107 101 100 98 100 88 90 95 99 104 112 117 115 107 105 111 119 118 119 119 115 119 123 129 124 116 128 123 120 113 113 108 85 83 75 54 40 30 27 23 28 31 27 28 26 25 26 27 28 26 25 29 30 29 26 27
336 342 356 9 13 12 11 15 20 43 73 79 97 100 96 98 105 106 106 105 113 113 112 117 116 113 123 139 132 120 115 115 102 90 85 90 96 101 112 112 108 109 112 114 112 112 117 109 110 125 126 127 123 118 121 111 114 106 108 104 97 81 77 83 72 44 30 22 18 28 30 29 29 27 22 23 25 25 24 25 26 28 26 24 25
338 341 352 4 13 13 19 18 21 40 60 58 74 86 94 96 100 99 101 100 108 114 114 116 127 128 131 133 126 111 105 99 100 98 95 91 102 105 106 103 105 110 119 122 116 117 111 122 127 128 129 119 130 138 126 104 108 102 103 109 105 91 80 65 77 66 20 25 21 24 26 28 24 23 20 22 24 23 21 22 25 25 22 18 19
338 348 351 360 11 19 25 27 31 41 48 51 68 78 85 92 99 102 106 104 111 118 119 132 128 128 125 122 120 111 108 108 104 107 107 106 102 100 102 102 112 113 121 129 143 131 129 130 132 127 126 136 141 128 136 117 113 121 113 101 105 88 64 55 62 36 28 28 23 16 25 28 16 5 1 18 20 19 21 20 23 23 18 16 15
337 352 358 353 360 11 23 25 32 41 43 46 48 65 78 87 96 104 110 114 127 129 132 130 126 119 121 116 113 111 105 99 96 96 100 103 103 96 106 111 113 128 145 144 145 134 128 131 127 123 123 133 127 125 131 110 126 126 112 115 87 95 78 63 53 36 30 46 12 13 23 17 6 357 354 352 5 16 17 18 21 20 16 11 14
345 353 354 345 351 360 15 15 26 37 45 44 53 54 67 87 97 107 119 126 134 133 125 122 119 120 114 112 108 101 95 92 89 92 101 93 96 103 103 112 133 143 152 154 146 145 132 127 118 119 137 128 129 124 129 112 111 113 117 102 108 117 121 81 29 42 26 20 9 11 15 4 353 353 352 345 349 358 12 13 15 19 17 14 14
333 346 352 358 350 349 357 358 12 28 38 40 50 57 77 86 107 116 113 123 124 116 112 115 116 115 105 98 99 99 96 96 97 98 87 97 102 104 111 119 146 157 162 159 151 136 127 122 121 112 103 100 111 125 128 133 145 121 113 129 134 124 122 119 124 3 353 11 17 10 6 353 354 6 357 344 350 352 359 18 18 11 11 12 14
333 350 355 352 338 333 346 357 4 21 34 41 54 59 71 83 101 124 134 140 141 137 125 121 115 107 106 103 104 105 106 103 98 92 93 101 107 115 111 132 160 162 172 158 139 135 129 121 116 107 94 119 125 122 110 123 148 140 120 123 106 100 80 68 16 46 8 18 19 0 5 353 7 10 5 357 352 353 351 8 19 13 10 9 10
341 348 332 318 313 332 328 320 337 351 355 18 21 30 48 118 153 163 162 165 163 153 148 130 116 114 106 109 115 112 115 104 96 98 104 108 114 109 117 150 163 155 174 164 140 130 121 108 108 105 105 108 97 111 121 119 143 142 95 61 nan 100 73 38 67 68 76 67 79 278 299 344 6 0 12 8 4 355 355 360 0 3 12 11 4
341 317 308 311 295 288 291 294 284 290 306 291 307 351 170 176 200 181 177 171 171 166 158 128 123 115 111 117 125 126 118 105 103 108 107 103 110 124 141 146 133 156 173 153 129 122 110 128 139 129 133 125 109 117 132 126 128 119 113 80 9 28 72 68 75 62 81 175 342 308 259 337 341 2 1 7 353 347 345 348 352 6 13 9 9
297 284 301 308 296 293 289 284 282 279 295 291 316 326 288 231 210 235 199 163 179 158 163 159 142 118 118 126 130 117 112 113 117 109 107 117 123 123 131 138 128 133 142 127 126 127 142 152 128 127 133 150 115 120 153 107 175 142 147 157 135 105 93 76 99 156 321 43 141 258 291 308 357 332 340 350 335 326 341 348 359 15 19 3 356
284 275 291 294 298 296 284 285 276 284 285 286 320 283 286 311 302 326 252 222 197 183 161 141 165 197 152 125 132 138 118 113 105 110 116 120 127 120 120 128 121 120 118 130 131 140 147 145 138 140 136 151 132 142 154 194 156 139 136 133 140 130 100 105 284 279 213 348 282 289 279 23 346 307 334 8 357 332 328 318 350 28 26 3 1
289 280 269 275 294 290 278 278 286 291 306 275 280 272 269 302 288 294 308 223 167 164 163 133 150 213 185 121 140 127 115 113 110 114 119 118 123 118 112 115 117 114 125 140 147 140 134 136 147 160 152 143 139 149 157 203 101 95 95 121 130 157 117 132 116 317 187 197 222 227 191 22 2 328 9 3 326 327 332 328 349 7 14 7 4
286 270 272 272 282 275 282 289 298 306 324 291 292 307 288 311 310 318 324 330 308 137 168 154 204 222 222 262 121 103 106 119 115 114 131 135 129 121 119 111 108 105 101 119 144 134 143 150 149 162 156 159 150 133 137 168 93 177 140 110 107 136 128 121 140 104 108 211 221 180 188 71 26 12 358 292 255 317 332 340 353 20 16 6 0
293 288 289 279 260 289 283 297 299 304 305 271 288 284 258 289 301 287 302 274 244 236 221 159 184 217 223 182 76 95 102 116 108 118 112 110 109 103 113 108 105 104 112 118 130 135 148 149 140 158 159 138 157 137 127 161 189 90 55 144 148 160 91 106 141 102 157 175 154 176 184 118 86 8 351 330 288 305 335 1 17 22 22 3 355
297 293 292 288 268 244 261 279 273 281 299 257 284 277 276 295 298 295 311 305 289 315 33 85 196 256 20 172 178 75 112 132 107 87 103 84 99 108 104 98 110 123 120 104 121 127 141 155 133 140 132 131 99 150 138 137 206 224 211 91 57 66 72 102 170 91 118 16 65 49 4 124 262 81 317 320 273 272 340 9 22 24 25 360 1
278 291 291 285 291 253 225 271 252 263 283 230 249 254 261 271 299 342 5 359 1 84 101 112 149 147 204 209 213 176 197 292 125 100 51 87 81 82 79 93 110 118 119 117 109 111 113 115 124 131 106 102 112 130 136 134 152 147 201 84 74 69 357 48 78 83 125 111 107 89 106 82 105 61 233 347 8 330 33 16 29 37 42 25 16
280 284 294 273 298 285 230 248 224 251 249 226 217 226 250 229 85 85 66 51 54 68 74 100 135 161 208 167 182 184 191 191 184 150 186 108 110 111 117 122 117 121 119 86 97 116 123 123 112 111 116 123 98 97 112 127 187 114 114 89 72 61 105 214 53 12 29 87 117 101 94 126 85 15 287 77 46 65 80 53 34 35 32 34 21
288 275 285 267 289 283 243 231 222 239 257 229 223 215 226 122 80 105 107 90 101 86 113 118 127 128 140 146 158 157 173 193 166 142 138 128 126 134 129 124 119 110 122 99 93 86 86 105 125 116 121 116 110 102 114 107 102 96 118 99 80 82 6 41 7 348 12 36 84 77 93 111 82 38 31 39 36 39 59 46 37 23 16 16 26
290 267 272 267 278 275 257 255 205 221 262 231 242 234 190 112 101 120 76 106 110 119 132 137 131 124 137 126 124 125 136 148 137 126 126 115 131 146 138 118 110 110 116 82 89 87 96 101 100 97 105 116 123 121 105 97 89 78 58 64 86 107 71 56 26 1 25 16 42 81 53 81 103 56 22 48 70 74 53 42 36 18 15 19 28
284 277 268 271 271 282 274 278 214 217 253 240 256 256 166 119 101 126 81 111 86 119 113 122 125 129 127 109 105 110 116 103 100 110 110 125 125 130 114 109 110 113 101 81 92 92 96 99 98 96 125 110 119 130 128 119 114 109 84 42 50 34 34 39 34 17 8 7 45 57 90 54 63 66 63 9 40 49 41 39 34 27 17 19 28